Retour au catalogue

FREGAT DEB

LostHEO
NORAD 45895·DEBRIS·🇷🇺 Russia

Lancé Jul 18, 2011 depuis Baikonur Cosmodrome

Loading…

Prochains Passages (prochaines 24 heures)

TLE

PériméSource: Space-Track

Époque: Aug 25, 2020, 10:31 UTC

1 45895U 11037DQ  20238.43834888  .00027598  00000-0  34133-1 0  9990
2 45895  51.4483 263.2106 2715420 118.3273 271.7473  9.27229423  4368

Suivez FREGAT DEB en temps réel avec AllMySat

Download on the App Store